User: anonymous   Login
Location: Unspecified
(0.0000°N, 0.0000°E)
Time: 13:31:42
(UTC+02:00)
Language:

ASC 2 Rocket - Orbit

View from above orbital plane
View from above orbital plane
View from above satellite
View from above satellite

Ground track
Ground track

The orbit data is extracted from the following two-line orbital elements,

1 21228U 91028B   15140.50098307  .00000913  00000-0  34758-3 0  9991
2 21228 023.9921 295.6532 1143989 132.2963 273.5239 12.53090633102530
Epoch (UTC): 20 May 2015 12:01:24
Eccentricity: 0.1143989
inclination: 23.9921°
perigee height: 556 km
apogee height: 2347 km
right ascension of ascending node: 295.6532°
argument of perigee: 132.2963°
revolutions per day: 12.53090633
mean anomaly at epoch: 273.5239°
orbit number at epoch: 10253

The dashed part of the orbit path shows where the satellite is in the earth's shadow,  

DLR